Vertical_Velocity
5 4 3 -0 -11 -7 -1 -8 -1 -3 -5 0 4 2 -2 1 -5 -12 -1 -3 -2 3 1 2 3 2 2 -1 -2 -3 -1 -2 -1 -1 -0 0 -1 -0 0 -1 -0 -1 -1 1 2 -1 -0 1 3
4 2 3 0 -8 -1 -6 -3 -2 -5 -8 0 2 1 -0 -3 2 -3 -4 -3 4 -4 -4 -2 3 2 4 -2 -2 -2 -2 -0 -1 -2 0 0 -1 0 0 0 -1 -0 -1 0 0 0 1 -1 -1
-4 1 -0 -3 -1 -4 -5 -2 -6 -2 -0 1 1 2 2 -2 -2 0 5 1 2 -3 -2 -5 -2 2 2 2 -5 -2 -1 -3 -3 -2 -1 0 -0 1 -0 0 -1 -1 -1 0 0 -1 0 -0 0
1 -1 1 -2 -2 -8 -2 -2 0 -3 -12 2 6 -2 3 -7 -6 -6 -0 3 7 -0 -5 -3 0 1 2 3 -2 -5 -2 -1 -3 -1 -0 -0 -0 0 -0 0 -0 1 -1 -0 -1 -2 1 1 -0
4 -0 0 1 -4 -3 -1 -3 6 -1 -1 -5 2 -5 -2 -2 7 -2 -4 -4 -5 -4 -2 -1 1 -1 -0 1 5 -8 -3 0 -2 -1 -1 0 -1 -0 -2 -2 2 1 0 -1 -1 0 0 -1 -1
-1 3 0 -0 -3 -2 -1 -5 4 1 -4 -12 4 2 -3 2 -2 0 2 -1 3 -5 -4 -0 -0 1 -4 -2 3 -1 -6 1 -1 -1 -0 2 -1 0 -1 5 -1 1 1 1 -1 1 -1 -2 0
-3 -1 -2 -0 -1 -0 -4 5 0 -0 0 -11 10 -1 4 5 10 -3 -1 -0 4 1 -1 -2 0 6 -1 -1 0 2 -3 -2 -0 -2 1 -1 -1 -2 -1 -1 3 -2 2 -3 -2 -0 1 0 -4
-1 -3 0 -1 -1 -7 -6 -0 1 5 -8 0 22 -2 -2 -8 8 11 8 6 2 -1 1 2 -2 -2 -0 -0 -1 1 5 -2 0 -0 0 -2 -1 -3 -1 1 2 4 3 5 8 1 -0 -0 4
6 1 -0 -4 3 -7 -7 3 -7 2 0 -5 5 15 1 -0 5 5 3 4 2 5 4 0 -1 -0 0 1 0 -0 3 -1 0 1 -1 -1 -1 -1 -3 -0 2 3 2 5 -3 0 1 -1 6
-0 3 -5 -4 -2 -3 -3 7 1 -1 -3 -8 -7 -14 36 9 3 1 -2 -3 1 -4 -3 3 1 -1 -1 0 3 -1 -1 1 1 -0 -2 -2 -1 -3 -0 1 -0 2 2 -0 -2 0 3 -0 -2
-1 -2 -3 -7 -0 7 0 -1 4 4 -3 -3 -0 -2 -6 7 22 9 4 -2 -14 1 2 -3 -1 1 -1 -1 2 1 0 3 -3 3 -4 -0 -1 -2 -2 -1 -0 -4 -3 -3 -1 -2 -2 4 0
5 -3 3 -8 -4 3 -1 -1 -4 7 -13 -6 -1 -0 -5 -8 10 8 12 -3 -6 -10 -5 2 3 0 -1 -3 -3 2 0 2 -1 2 -2 -4 -2 -2 -1 -1 -1 -3 -3 -1 2 3 -0 0 4
5 -4 -1 -5 -2 -5 8 -5 -8 -11 2 -1 -1 2 -1 7 -6 -5 11 29 10 1 -5 -7 3 0 -0 -1 -2 -1 -2 -0 6 -2 4 -3 -3 -2 0 -1 -2 -1 -0 0 -0 3 -6 -0 2
-2 1 -4 -1 -3 2 9 -8 22 -15 -2 6 4 -5 -5 -4 6 1 -2 -6 19 7 0 3 -0 1 -0 -1 5 -4 -2 2 0 1 4 -1 -3 -0 2 0 -3 1 -1 -1 1 1 -2 -0 2
-0 0 -4 -4 -3 -2 3 -7 -4 -0 -4 -7 3 -1 -2 -5 -3 -5 1 3 -7 11 -0 -4 -0 1 -4 -5 2 5 3 -3 -3 3 2 2 -4 0 1 1 -1 1 -0 1 2 2 4 3 -4
-2 2 0 -5 -0 -5 5 -22 -16 -3 4 -4 -7 -7 -1 -4 -6 -6 -7 -6 -1 12 12 0 4 0 2 -5 0 -1 3 1 -1 -0 4 1 1 1 2 0 -0 0 -1 1 1 1 3 1 0
0 -3 1 -18 -0 -0 7 -7 -12 -4 3 -3 -4 -7 -7 -5 -5 8 4 -1 -5 -3 8 7 4 -4 1 0 -2 -1 6 2 3 1 1 0 3 2 2 1 1 1 0 1 2 4 1 0 -1
-0 1 -2 -2 -13 0 -2 -8 -7 -7 8 -4 -3 -7 -1 -3 -16 -10 -2 5 1 -1 7 10 9 -2 1 4 4 5 5 4 4 0 1 1 1 4 2 1 1 1 1 2 3 2 3 2 3
2 5 1 -11 -13 16 -2 -2 -6 -7 3 0 -2 -1 -4 -3 -13 -4 -3 -2 -2 1 12 3 7 -2 9 -5 -1 10 -17 -2 -6 -1 3 4 0 2 1 2 1 2 -1 0 2 4 1 -0 1
2 2 -10 -11 -4 23 -2 -11 -6 -0 -4 0 -0 -3 1 -3 -4 2 -1 -2 7 -3 2 8 4 2 0 -0 2 8 9 7 9 3 5 -0 -1 1 2 1 2 0 1 2 -2 -0 -2 6 1
-2 3 -3 4 -7 -4 7 -9 -3 -10 1 -1 -3 -0 -3 -4 -9 -5 1 -3 14 1 9 4 -2 -4 -1 6 10 10 9 13 12 -2 -3 -4 3 3 1 -3 4 2 1 0 3 0 1 -3 0
4 -1 3 1 10 -1 3 -17 -6 -3 -5 -0 -4 -3 -4 -2 6 5 -5 2 4 3 2 4 3 -4 5 4 1 -1 -12 -11 -10 1 3 -3 -2 -1 1 1 3 -0 1 -2 -0 1 -4 4 -5
-13 3 4 3 3 6 -13 12 -26 2 -2 -5 -3 3 0 13 16 8 2 8 0 0 6 -5 2 14 1 -3 3 1 3 4 3 -1 1 3 -1 -0 -2 -1 1 2 0 0 -1 -6 -1 5 6
-1 3 0 -0 1 4 -9 15 -28 -2 -5 -5 1 -1 -2 13 4 6 5 7 -1 3 5 -5 -8 2 2 1 -5 -4 -4 -1 -1 -3 1 2 2 -0 1 -0 3 -1 1 -1 3 3 2 1 5
1 2 -3 -2 4 -9 -2 11 -18 -2 -3 1 2 2 -5 9 6 6 -1 -1 -0 -2 -2 4 1 -3 -0 3 -0 5 1 2 3 0 1 -1 -3 -3 -0 -0 1 1 4 4 4 1 5 -5 -2
-3 0 -1 -2 -1 -2 1 -1 3 6 3 3 3 2 3 3 3 1 -1 2 4 -1 -1 -3 12 12 4 6 4 7 5 1 1 5 1 -2 -3 -2 -1 -1 -2 -0 1 -2 3 2 8 4 1
-2 5 -18 4 -1 5 -3 -2 4 -2 2 -1 2 -3 -9 6 19 1 1 2 -1 -1 -2 1 5 14 12 6 1 4 6 -0 -3 5 1 -1 1 -1 2 1 0 -1 1 2 4 3 9 -0 -2
-0 -5 -9 -1 -0 0 -4 0 3 -5 5 2 -0 2 -4 8 -0 -3 1 -0 5 8 1 6 7 3 7 10 10 4 4 4 3 3 1 1 3 1 -2 -3 -3 -0 2 0 0 1 1 6 -11
-3 0 2 -6 1 -0 0 5 3 2 5 3 3 5 -2 -0 1 4 1 -1 2 5 6 1 1 0 0 8 6 4 6 1 -2 7 5 -2 2 -1 0 1 2 2 2 4 3 4 6 -4 -1
-2 -2 -1 -2 -2 -1 -1 6 1 3 3 1 3 4 0 2 5 4 3 -1 -7 -5 -4 1 2 1 4 2 7 4 10 -4 4 6 -1 3 -0 1 3 0 1 0 -1 3 2 -2 21 5 -0
Height
1505 1506 1506 1507 1519 1525 1527 1513 1491 1489 1490 1480 1478 1474 1468 1465 1465 1480 1468 1473 1479 1482 1485 1487 1490 1491 1493 1496 1499 1501 1504 1507 1509 1511 1513 1515 1516 1518 1519 1520 1522 1524 1525 1527 1529 1530 1532 1534 1535
1504 1506 1507 1506 1523 1533 1522 1497 1490 1484 1478 1479 1477 1472 1469 1468 1465 1465 1468 1471 1477 1482 1485 1488 1490 1491 1493 1495 1498 1501 1503 1505 1508 1510 1512 1514 1516 1517 1519 1521 1522 1524 1526 1528 1530 1531 1533 1535 1537
1503 1505 1507 1509 1521 1520 1510 1485 1474 1478 1478 1478 1476 1470 1468 1466 1466 1465 1466 1469 1473 1479 1484 1487 1490 1491 1492 1493 1497 1500 1502 1504 1507 1509 1511 1513 1515 1518 1520 1521 1523 1525 1526 1528 1530 1533 1535 1537 1539
1501 1506 1508 1511 1510 1495 1488 1480 1478 1476 1473 1473 1473 1469 1468 1464 1463 1466 1468 1471 1473 1476 1482 1486 1489 1490 1492 1493 1493 1498 1501 1503 1506 1508 1510 1512 1514 1517 1519 1521 1523 1525 1527 1528 1531 1534 1536 1538 1540
1499 1501 1510 1509 1502 1491 1484 1481 1476 1480 1478 1473 1473 1468 1465 1465 1464 1464 1467 1470 1474 1476 1481 1484 1487 1489 1492 1493 1493 1496 1500 1502 1504 1506 1509 1511 1513 1516 1518 1520 1522 1525 1526 1528 1531 1534 1537 1539 1541
1501 1499 1509 1503 1492 1484 1481 1479 1480 1480 1476 1472 1469 1464 1462 1460 1461 1463 1466 1469 1472 1474 1479 1482 1485 1487 1490 1492 1493 1494 1497 1500 1502 1505 1507 1509 1512 1515 1517 1519 1522 1524 1526 1529 1532 1534 1536 1538 1540
1497 1501 1501 1494 1491 1486 1478 1476 1476 1477 1475 1471 1465 1460 1460 1461 1461 1462 1465 1469 1472 1475 1477 1480 1483 1486 1487 1490 1493 1493 1495 1498 1500 1503 1505 1507 1510 1514 1516 1518 1521 1523 1526 1528 1530 1533 1535 1538 1538
1491 1495 1494 1492 1491 1484 1474 1474 1475 1474 1472 1470 1465 1462 1463 1461 1461 1461 1463 1466 1469 1472 1476 1477 1481 1484 1486 1488 1491 1493 1494 1496 1498 1501 1503 1506 1509 1512 1515 1517 1519 1522 1525 1527 1530 1532 1534 1536 1537
1489 1495 1492 1489 1484 1477 1474 1473 1469 1472 1470 1470 1469 1462 1458 1459 1459 1460 1462 1464 1467 1469 1472 1475 1478 1481 1484 1486 1488 1491 1493 1494 1495 1499 1501 1504 1506 1509 1513 1515 1518 1522 1524 1527 1529 1531 1533 1535 1537
1485 1488 1482 1476 1475 1473 1472 1471 1470 1471 1468 1466 1465 1464 1459 1458 1458 1457 1458 1460 1463 1466 1469 1472 1475 1478 1481 1484 1485 1488 1490 1492 1493 1495 1498 1501 1504 1507 1510 1514 1517 1520 1523 1524 1528 1530 1533 1534 1536
1477 1477 1474 1473 1471 1470 1470 1466 1468 1466 1466 1466 1465 1467 1469 1464 1460 1457 1457 1457 1459 1463 1465 1468 1471 1474 1477 1480 1483 1484 1487 1489 1491 1492 1495 1498 1501 1504 1508 1511 1514 1516 1519 1522 1525 1527 1529 1532 1533
1480 1470 1471 1471 1470 1469 1466 1463 1460 1461 1459 1461 1461 1461 1464 1466 1464 1460 1457 1456 1457 1459 1462 1464 1466 1469 1473 1476 1479 1481 1483 1485 1487 1489 1491 1494 1497 1501 1504 1507 1510 1512 1515 1518 1521 1522 1528 1531 1533
1474 1469 1468 1467 1466 1463 1461 1456 1456 1448 1451 1454 1453 1454 1454 1458 1460 1459 1457 1455 1453 1454 1457 1460 1461 1464 1468 1472 1474 1477 1479 1481 1484 1486 1487 1490 1494 1496 1500 1503 1506 1509 1512 1515 1518 1521 1525 1528 1531
1471 1465 1460 1458 1457 1455 1458 1451 1453 1442 1448 1445 1445 1446 1446 1446 1448 1451 1452 1452 1452 1451 1451 1453 1455 1459 1462 1466 1468 1471 1475 1477 1480 1482 1484 1486 1490 1493 1495 1498 1502 1505 1508 1511 1515 1518 1521 1524 1527
1470 1465 1457 1450 1452 1451 1457 1449 1441 1441 1444 1439 1437 1437 1439 1438 1440 1438 1441 1443 1446 1447 1447 1447 1449 1452 1456 1461 1464 1466 1470 1473 1475 1478 1480 1482 1485 1488 1491 1493 1497 1501 1504 1508 1511 1515 1519 1522 1524
1471 1466 1467 1446 1449 1450 1454 1450 1428 1438 1438 1433 1433 1430 1430 1430 1431 1431 1432 1433 1436 1438 1439 1442 1444 1445 1449 1454 1459 1462 1464 1467 1471 1474 1476 1478 1481 1484 1487 1490 1493 1497 1500 1503 1506 1509 1513 1517 1519
1475 1471 1470 1449 1453 1454 1454 1447 1427 1433 1432 1428 1427 1426 1424 1421 1421 1422 1422 1422 1425 1429 1432 1433 1436 1440 1443 1448 1453 1456 1459 1462 1466 1469 1472 1474 1477 1480 1483 1486 1489 1494 1497 1499 1501 1504 1508 1511 1514
1475 1478 1472 1465 1444 1455 1448 1442 1433 1429 1429 1424 1420 1418 1416 1414 1412 1414 1411 1412 1414 1417 1421 1424 1428 1433 1437 1440 1446 1450 1456 1458 1461 1464 1467 1470 1473 1476 1479 1481 1485 1489 1492 1495 1497 1499 1503 1506 1510
1471 1474 1472 1455 1451 1459 1449 1440 1432 1424 1421 1416 1413 1410 1408 1407 1408 1409 1408 1404 1404 1407 1411 1414 1419 1424 1428 1431 1437 1443 1449 1452 1455 1458 1461 1465 1469 1472 1474 1477 1481 1484 1487 1490 1493 1495 1498 1501 1505
1467 1469 1460 1455 1449 1450 1442 1432 1422 1420 1412 1409 1406 1403 1400 1401 1402 1402 1400 1401 1402 1403 1403 1405 1409 1414 1418 1422 1428 1433 1440 1445 1449 1453 1456 1461 1464 1467 1470 1473 1477 1480 1483 1485 1488 1490 1493 1496 1499
1462 1460 1457 1452 1441 1434 1435 1425 1417 1408 1405 1401 1396 1396 1395 1393 1392 1391 1392 1395 1396 1395 1396 1397 1400 1404 1409 1414 1419 1426 1432 1440 1443 1448 1452 1454 1457 1461 1464 1468 1471 1475 1478 1480 1482 1485 1487 1490 1493
1458 1452 1449 1445 1442 1441 1433 1427 1406 1403 1399 1393 1389 1390 1386 1383 1383 1384 1384 1383 1384 1385 1383 1387 1391 1395 1400 1405 1410 1415 1422 1428 1433 1438 1443 1448 1452 1455 1458 1462 1465 1469 1472 1474 1476 1479 1482 1484 1486
1448 1447 1445 1441 1439 1442 1425 1432 1395 1399 1393 1390 1388 1389 1382 1378 1377 1378 1377 1379 1379 1381 1379 1380 1387 1390 1393 1399 1403 1410 1417 1424 1429 1432 1437 1441 1447 1450 1453 1456 1459 1463 1465 1468 1470 1472 1475 1477 1480
1444 1444 1438 1434 1442 1441 1425 1428 1386 1397 1390 1384 1391 1392 1395 1385 1376 1375 1374 1373 1374 1376 1376 1378 1381 1385 1390 1393 1398 1405 1414 1419 1423 1428 1430 1434 1440 1443 1447 1451 1453 1457 1459 1460 1463 1466 1469 1471 1473
1440 1443 1447 1457 1445 1426 1408 1411 1393 1388 1382 1378 1387 1392 1406 1401 1374 1371 1368 1370 1371 1371 1372 1373 1376 1380 1384 1388 1393 1400 1407 1413 1417 1420 1423 1428 1432 1436 1440 1444 1447 1449 1451 1453 1456 1459 1461 1464 1467
1443 1446 1443 1442 1432 1416 1401 1403 1398 1395 1386 1385 1391 1393 1399 1395 1377 1374 1376 1375 1371 1371 1370 1371 1376 1377 1381 1388 1393 1397 1403 1408 1412 1415 1418 1421 1425 1430 1435 1438 1441 1443 1446 1448 1450 1452 1454 1458 1460
1431 1432 1424 1433 1424 1421 1405 1391 1390 1396 1393 1398 1400 1398 1404 1402 1379 1375 1379 1374 1374 1375 1375 1375 1374 1377 1381 1387 1391 1395 1402 1404 1407 1412 1415 1419 1422 1427 1430 1433 1435 1437 1439 1441 1443 1444 1446 1450 1453
1424 1413 1433 1431 1430 1419 1397 1393 1401 1408 1402 1408 1406 1405 1412 1406 1387 1390 1385 1380 1379 1378 1377 1376 1374 1376 1380 1387 1393 1396 1399 1402 1405 1408 1412 1415 1419 1422 1425 1427 1430 1432 1433 1434 1436 1437 1439 1441 1444
1421 1420 1417 1417 1418 1412 1402 1408 1425 1422 1418 1417 1413 1414 1412 1408 1405 1396 1388 1383 1381 1379 1377 1374 1374 1376 1380 1386 1391 1393 1395 1398 1402 1405 1409 1413 1416 1418 1420 1422 1423 1425 1425 1426 1428 1429 1430 1432 1437
1416 1416 1414 1423 1406 1406 1410 1420 1431 1428 1424 1424 1420 1416 1422 1419 1407 1397 1392 1389 1386 1382 1378 1377 1378 1379 1379 1381 1387 1390 1393 1396 1400 1403 1407 1410 1412 1414 1416 1417 1418 1418 1419 1419 1420 1421 1418 1422 1428